FW8110 Weather Reports


time (UTC)temp
F
wind
direction
speed
knots
gust
knots
rain 1hr
in
rain 24hr
in
rain mn
in
humidity
%
barometer
mb
20260505153003 44 352 0.0 0.0 0.01 0.00 0.06 94 1249.2
20260505151503 44 23 0.0 0.0 0.02 0.00 0.06 95 1248.9
20260505150503 44 6 0.0 0.0 0.02 0.00 0.06 94 1249.2
20260505125003 41 2 0.0 0.9 0.02 0.00 0.04 93 1249.2
20260505121003 42 322 0.0 0.9 0.02 0.00 0.02 93 1249.9
20260505115503 43 338 0.0 8.7 0.02 0.00 0.02 92 1249.9
20260505114003 44 297 0.0 9.6 0.00 0.00 0.00 92 1250.3
20260505101003 46 332 0.0 0.0 0.00 0.00 0.00 82 1249.6
20260505095503 46 319 0.0 0.0 0.00 0.00 0.00 83 1249.9
20260505094003 46 27 0.0 0.0 0.00 0.00 0.00 83 1249.2
20260505093002 46 347 0.0 0.0 0.00 0.00 0.00 84 1249.2
20260505091503 45 340 0.0 0.0 0.00 0.00 0.00 85 1249.6
20260505090002 45 14 0.0 0.0 0.00 0.00 0.00 83 1249.6
20260505081503 46 335 0.0 0.0 0.00 0.00 0.00 82 1250.3
20260505071503 46 341 0.0 0.0 0.00 0.00 0.00 79 1250.3
20260505070003 46 353 0.0 0.0 0.00 0.00 0.00 79 1250.6
20260505063003 47 349 0.0 0.0 0.00 0.00 0.00 76 1250.6
20260505061503 48 347 0.0 0.0 0.00 0.00 0.00 75 1249.9
20260505060004 48 8 0.0 0.0 0.00 0.00 0.00 74 1250.3
20260505055503 48 7 0.0 0.9 0.00 0.00 0.00 74 1250.3
20260505054003 48 1 0.0 0.0 0.00 0.00 0.00 72 1250.9
20260505052003 49 320 0.0 0.0 0.00 0.00 0.00 70 1251.6
20260505050503 49 6 0.0 0.9 0.00 0.00 0.00 70 1251.6
20260505041004 50 316 0.9 4.3 0.00 0.00 0.00 68 1251.3
20260505035504 49 343 0.0 0.0 0.00 0.00 0.00 69 1251.6
20260505032504 50 297 0.0 0.0 0.00 0.00 0.00 67 1252.3
20260505031003 53 350 3.5 6.1 0.00 0.00 0.00 53 1251.6
20260505025503 53 313 2.6 6.1 0.00 0.00 0.00 50 1251.3
20260505024004 54 329 0.9 13.0 0.00 0.00 0.00 46 1250.9
20260505022503 56 319 7.0 7.0 0.00 0.00 0.00 41 1250.9
20260505021003 57 259 7.0 9.6 0.00 0.00 0.00 38 1250.6
20260505015503 57 351 3.5 10.4 0.00 0.00 0.00 35 1250.3
20260505012503 59 310 0.0 9.6 0.00 0.00 0.00 34 1249.9
20260505004502 62 341 0.9 7.8 0.00 0.00 0.00 26 1249.6
20260505003003 63 288 8.7 10.4 0.00 0.00 0.00 24 1249.6
20260505002002 64 161 0.0 10.4 0.00 0.00 0.00 24 1249.2
20260505000503 64 319 3.5 8.7 0.00 0.00 0.00 23 1249.6
20260504235004 64 305 6.1 7.8 0.00 0.00 0.00 22 1249.6
20260504233503 64 305 0.0 2.6 0.00 0.00 0.00 23 1249.6
20260504232002 65 316 0.0 7.8 0.00 0.00 0.00 23 1249.9
20260504230503 65 320 4.3 11.3 0.00 0.00 0.00 23 1249.6
20260504225003 68 5 0.0 6.1 0.00 0.00 0.00 22 1249.9
20260504223503 66 357 0.0 8.7 0.00 0.00 0.00 22 1249.9
20260504222003 65 308 7.8 9.6 0.00 0.00 0.00 23 1249.9
20260504213503 66 335 5.2 9.6 0.00 0.00 0.00 24 1250.6
20260504212002 65 312 6.1 9.6 0.00 0.00 0.00 23 1250.9
20260504210503 66 293 6.1 9.6 0.00 0.00 0.00 21 1250.9
20260504205003 66 320 6.1 7.8 0.00 0.00 0.00 22 1251.3
20260504203502 67 335 1.7 8.7 0.00 0.00 0.00 22 1251.3
20260504202003 66 347 5.2 5.2 0.00 0.00 0.00 22 1251.3
20260504200504 65 324 7.8 8.7 0.00 0.00 0.00 23 1251.6
20260504195003 65 295 7.8 12.2 0.00 0.00 0.00 22 1251.6
20260504194003 65 323 0.0 10.4 0.00 0.00 0.00 23 1251.3
20260504192503 64 320 2.6 7.8 0.00 0.00 0.00 23 1251.6
20260504191002 65 322 1.7 9.6 0.00 0.00 0.00 24 1251.9
20260504185503 65 300 3.5 6.1 0.00 0.00 0.00 25 1251.9
20260504184003 65 302 9.6 9.6 0.00 0.00 0.00 23 1252.3
20260504182503 63 353 0.0 0.0 0.00 0.00 0.00 26 1251.9
20260504175003 62 3 4.3 8.7 0.00 0.00 0.00 27 1252.3
20260504173503 61 2 0.0 5.2 0.00 0.00 0.00 31 1252.6
20260504171003 60 314 5.2 8.7 0.00 0.00 0.00 34 1252.6